FW2297 Weather Reports


Display with metric or nautical units.
time (UTC)temp
F
wind
direction
speed
MPH
gust
MPH
rain 1hr
in
rain 24hr
in
rain mn
in
humidity
%
barometer
mb
20260906193103 70 284 1.0 11.0 0.00 1.00 0.64 42 1014.3
20260906192555 70 38 0.0 11.0 0.00 1.00 0.64 40 1014.3
20260906192052 70 0 2.0 11.0 0.00 1.00 0.64 39 1014.4
20260906191602 70 0 2.0 10.0 0.00 1.00 0.64 40 1014.5
20260906191056 70 33 5.0 11.0 0.00 1.00 0.64 39 1014.5
20260906190554 70 0 1.0 11.0 0.00 1.00 0.64 40 1014.5
20260906190100 70 0 4.0 11.0 0.00 1.00 0.64 40 1014.3
20260906185555 70 345 1.0 11.0 0.00 1.00 0.64 41 1014.3
20260906185052 70 257 3.0 11.0 0.00 1.00 0.64 43 1014.3
20260906184558 70 0 2.0 11.0 0.00 1.00 0.64 40 1014.3
20260906184051 70 0 2.0 11.0 0.00 1.00 0.64 42 1014.2
20260906183551 70 360 2.0 11.0 0.00 1.00 0.64 44 1014.4
20260906183058 70 311 1.0 9.0 0.00 1.00 0.64 44 1014.4
20260906182551 69 27 0.0 9.0 0.00 1.00 0.64 45 1014.5
20260906182052 69 316 0.0 9.0 0.00 1.00 0.64 46 1014.5
20260906181607 70 0 1.0 9.0 0.00 1.00 0.64 45 1014.6
20260906181051 71 0 1.0 7.0 0.00 1.00 0.64 50 1014.6
20260906180551 70 0 0.0 6.0 0.00 1.00 0.64 48 1014.5
20260906180107 69 0 0.0 9.0 0.00 1.00 0.64 51 1014.6
20260906175551 69 0 1.0 9.0 0.00 1.00 0.64 50 1014.5
20260906175052 70 291 3.0 9.0 0.00 1.00 0.64 47 1014.5
20260906174600 70 0 0.0 13.0 0.00 1.00 0.64 47 1014.5
20260906174052 69 0 0.0 13.0 0.00 1.00 0.64 45 1014.7
20260906173553 70 0 3.0 10.0 0.00 1.00 0.64 44 1014.7
20260906173108 70 288 0.0 10.0 0.00 1.00 0.64 47 1014.9
20260906172551 69 0 1.0 10.0 0.00 1.00 0.64 47 1015.0
20260906172053 69 278 0.0 7.0 0.00 1.00 0.64 50 1015.0
20260906171607 69 0 0.0 10.0 0.00 1.00 0.64 50 1015.0
20260906171051 69 0 0.0 10.0 0.00 1.00 0.64 51 1014.9
20260906170553 69 0 1.0 10.0 0.00 1.00 0.64 48 1014.9
20260906170103 68 0 0.0 11.0 0.00 1.00 0.64 52 1014.8
20260906165551 68 261 3.0 11.0 0.00 1.00 0.64 52 1014.9
20260906165051 68 0 1.0 6.0 0.00 1.00 0.64 55 1014.9
20260906164604 67 316 0.0 5.0 0.00 1.00 0.64 55 1014.9
20260906164103 67 0 0.0 0.0 0.00 1.00 0.64 59 1015.0
20260906163552 68 0 0.0 4.0 0.00 1.00 0.64 57 1015.0
20260906163108 68 0 0.0 4.0 0.00 1.00 0.64 57 1015.0
20260906162552 68 309 0.0 4.0 0.00 1.00 0.64 61 1015.2
20260906162051 67 0 0.0 4.0 0.00 1.00 0.64 59 1015.0
20260906161603 67 0 0.0 4.0 0.00 1.00 0.64 59 1015.3
20260906161051 66 0 0.0 6.0 0.00 1.00 0.64 64 1015.3
20260906160553 66 0 0.0 6.0 0.00 1.00 0.64 65 1015.4
20260906160104 67 0 0.0 2.0 0.00 1.00 0.64 66 1015.1
20260906155551 67 0 0.0 2.0 0.00 1.00 0.64 71 1015.3
20260906155053 67 0 0.0 2.0 0.00 1.00 0.64 66 1015.6
20260906154601 66 0 0.0 2.0 0.00 1.00 0.64 68 1015.5
20260906154052 66 0 0.0 3.0 0.00 1.00 0.64 67 1015.5
20260906153553 65 0 0.0 4.0 0.00 1.00 0.64 72 1015.6
20260906153103 65 0 0.0 4.0 0.00 1.00 0.64 78 1015.6
20260906152552 65 0 0.0 4.0 0.00 1.00 0.64 76 1015.5
20260906152051 64 0 0.0 5.0 0.00 1.00 0.64 79 1015.5
20260906151600 63 0 0.0 5.0 0.00 1.00 0.64 81 1015.7
20260906151052 63 0 0.0 5.0 0.00 1.00 0.64 80 1015.7
20260906150551 63 0 0.0 5.0 0.00 1.00 0.64 82 1015.9
20260906150106 63 0 0.0 5.0 0.00 1.00 0.64 80 1015.9
20260906145551 64 0 0.0 5.0 0.00 1.00 0.64 80 1016.0
20260906145051 64 0 0.0 0.0 0.00 1.00 0.64 82 1015.9
20260906144556 64 0 0.0 0.0 0.00 1.00 0.64 82 1016.0
20260906144051 63 0 0.0 0.0 0.00 1.00 0.64 80 1015.9
20260906143552 63 0 0.0 0.0 0.00 1.00 0.64 82 1015.9
20260906143107 63 0 0.0 0.0 0.00 1.00 0.64 84 1016.0
20260906142551 63 0 0.0 4.0 0.00 1.00 0.64 86 1016.1
20260906142053 62 0 0.0 4.0 0.00 1.00 0.64 83 1015.9
20260906141601 61 0 0.0 0.0 0.00 1.00 0.64 88 1016.0
20260906141051 61 0 0.0 0.0 0.00 1.00 0.64 90 1015.9
20260906140551 60 0 0.0 0.0 0.00 1.00 0.64 88 1016.1
20260906140105 60 0 0.0 0.0 0.00 1.00 0.64 88 1016.1
20260906135551 60 0 0.0 0.0 0.00 1.00 0.64 89 1016.2
20260906135051 60 0 0.0 0.0 0.00 1.00 0.64 90 1016.1
20260906134603 60 0 0.0 1.0 0.00 1.00 0.64 90 1016.1
20260906134052 60 0 0.0 2.0 0.00 1.00 0.64 92 1015.9
20260906133551 59 0 0.0 2.0 0.00 1.00 0.64 92 1015.9
20260906133105 59 0 0.0 0.0 0.00 1.00 0.64 93 1015.9
20260906132552 59 0 0.0 0.0 0.00 1.00 0.64 94 1016.0
20260906132051 58 0 0.0 5.0 0.00 1.00 0.64 95 1016.0
20260906131600 58 0 0.0 5.0 0.00 1.00 0.64 95 1015.9
20260906131051 57 0 0.0 0.0 0.00 1.00 0.64 95 1015.9
20260906130551 57 0 0.0 0.0 0.00 1.00 0.64 96 1015.9
20260906125551 56 0 0.0 0.0 0.00 1.00 0.64 96 1015.9
20260906125051 56 0 0.0 0.0 0.00 1.00 0.64 96 1015.8
20260906124559 56 0 0.0 0.0 0.00 1.00 0.64 96 1016.0
20260906124051 56 0 0.0 0.0 0.00 1.00 0.64 96 1015.9
20260906123552 56 0 0.0 0.0 0.00 1.00 0.64 96 1016.1
20260906123103 56 0 0.0 0.0 0.00 1.00 0.64 96 1015.8
20260906122554 56 0 0.0 0.0 0.00 1.00 0.64 96 1016.0
20260906122051 56 0 0.0 0.0 0.00 1.00 0.64 96 1015.9
20260906121604 55 0 0.0 0.0 0.00 1.00 0.64 96 1016.1
20260906121051 55 0 0.0 0.0 0.00 1.00 0.64 96 1016.0
20260906120554 55 0 0.0 1.0 0.00 1.00 0.64 96 1016.1
20260906120114 55 0 0.0 1.0 0.00 1.00 0.64 96 1015.8
20260906115552 55 0 0.0 0.0 0.00 1.00 0.64 96 1015.8
20260906115049 55 0 0.0 0.0 0.00 1.00 0.64 96 1015.8
20260906114609 55 0 0.0 0.0 0.01 1.00 0.64 96 1015.7
20260906114051 55 0 0.0 0.0 0.03 1.00 0.64 96 1015.7
20260906113552 55 0 0.0 0.0 0.03 1.00 0.64 96 1015.6
20260906113103 55 0 0.0 0.0 0.05 1.00 0.64 96 1015.4
20260906112552 55 0 0.0 0.0 0.08 1.00 0.64 96 1015.4
20260906112052 55 0 0.0 0.0 0.09 1.00 0.64 96 1015.6
20260906111617 55 0 0.0 0.0 0.09 1.00 0.64 96 1015.5
20260906111049 55 0 0.0 0.0 0.10 1.00 0.64 96 1015.5
20260906110552 55 0 0.0 0.0 0.12 1.00 0.64 96 1015.5
20260906110105 55 0 0.0 0.0 0.14 1.00 0.64 96 1015.5
20260906105551 55 0 0.0 0.0 0.16 1.00 0.64 96 1015.5
20260906105056 55 0 0.0 0.0 0.18 1.00 0.64 96 1015.4
20260906104604 55 0 0.0 0.0 0.19 0.99 0.63 96 1015.5
20260906104048 55 0 0.0 0.0 0.21 0.97 0.61 96 1015.5
20260906103553 55 0 0.0 0.0 0.22 0.96 0.60 96 1015.2
20260906103106 55 0 0.0 0.0 0.21 0.94 0.58 96 1015.2
20260906102549 55 0 0.0 0.0 0.20 0.92 0.56 96 1015.3
20260906102053 55 0 0.0 0.0 0.19 0.91 0.55 96 1015.2
20260906101604 55 0 0.0 0.0 0.19 0.91 0.55 96 1015.2
20260906101050 55 0 0.0 0.0 0.19 0.90 0.54 96 1015.2
20260906100551 55 0 0.0 0.0 0.17 0.88 0.52 96 1015.0
20260906100059 55 0 0.0 0.0 0.15 0.86 0.50 96 1015.0
20260906095551 56 0 0.0 0.0 0.13 0.84 0.48 96 1015.1
20260906095048 56 0 0.0 0.0 0.11 0.82 0.46 96 1015.0
20260906094604 56 0 0.0 0.0 0.09 0.79 0.43 96 1015.2
20260906094049 56 0 0.0 0.0 0.06 0.76 0.40 96 1015.0
20260906093549 56 0 0.0 0.0 0.04 0.74 0.38 96 1014.9
20260906093105 56 0 0.0 0.0 0.04 0.73 0.37 96 1014.8
20260906092553 56 0 0.0 0.0 0.03 0.72 0.36 96 1014.6
20260906092051 56 0 0.0 0.0 0.03 0.72 0.36 96 1014.6
20260906091610 56 0 0.0 0.0 0.04 0.72 0.36 96 1014.5
20260906091048 56 0 0.0 0.0 0.04 0.71 0.35 96 1014.4
20260906090548 56 0 0.0 0.0 0.05 0.71 0.35 96 1014.5
20260906085548 56 0 0.0 0.0 0.06 0.71 0.35 96 1014.6
20260906085053 56 0 0.0 0.0 0.07 0.71 0.35 96 1014.7
20260906084600 56 0 0.0 0.0 0.06 0.70 0.34 96 1014.5
20260906084053 56 0 0.0 0.0 0.06 0.70 0.34 96 1014.6
20260906083551 57 0 0.0 0.0 0.07 0.70 0.34 96 1014.6
20260906083102 57 0 0.0 0.0 0.07 0.69 0.33 96 1014.5
20260906082550 56 0 0.0 0.0 0.08 0.69 0.33 96 1014.6
20260906082056 56 0 0.0 0.0 0.09 0.69 0.33 96 1014.4
20260906081603 57 0 0.0 0.0 0.09 0.68 0.32 96 1014.3
20260906081052 57 0 0.0 0.0 0.08 0.67 0.31 96 1014.3
20260906080548 57 0 0.0 0.0 0.07 0.66 0.30 96 1014.4
20260906080110 56 0 0.0 0.0 0.06 0.65 0.29 96 1014.4
20260906075548 56 0 0.0 0.0 0.05 0.64 0.28 96 1014.3
20260906075051 56 0 0.0 0.0 0.06 0.64 0.28 96 1014.4
20260906074601 57 0 0.0 0.0 0.06 0.64 0.28 96 1014.3
20260906074051 57 0 0.0 0.0 0.07 0.64 0.28 96 1014.2
20260906073551 57 0 0.0 0.0 0.07 0.63 0.27 96 1014.3
20260906073059 57 0 0.0 0.0 0.07 0.62 0.26 96 1014.2
20260906072549 57 0 0.0 0.0 0.07 0.61 0.25 96 1014.4
20260906072051 57 0 0.0 0.0 0.08 0.60 0.24 96 1014.4
20260906071604 57 0 0.0 0.0 0.09 0.58 0.23 96 1014.3
20260906071051 57 0 0.0 0.0 0.11 0.58 0.23 96 1014.3
20260906070550 57 0 0.0 0.0 0.13 0.58 0.23 96 1014.3
20260906065550 57 0 0.0 0.0 0.16 0.58 0.23 95 1014.1
20260906065051 57 0 0.0 0.0 0.16 0.58 0.22 95 1014.2
20260906064558 57 0 0.0 0.0 0.16 0.58 0.22 96 1014.2
20260906064051 57 0 0.0 0.0 0.16 0.57 0.21 96 1014.3
20260906063555 57 0 0.0 0.0 0.18 0.56 0.20 95 1014.1
20260906063102 57 0 0.0 0.0 0.19 0.55 0.19 95 1014.2
20260906062550 57 0 0.0 0.0 0.18 0.54 0.18 95 1014.2
20260906062051 57 0 0.0 0.0 0.16 0.52 0.16 95 1014.3
20260906061605 57 0 0.0 0.0 0.14 0.50 0.14 96 1014.2
20260906061055 57 0 0.0 0.0 0.12 0.48 0.12 96 1014.1
20260906060550 58 0 0.0 0.0 0.10 0.46 0.10 96 1014.1
20260906055627 58 0 0.0 0.0 0.07 0.43 0.07 96 1014.0
20260906055050 58 0 0.0 0.0 0.06 0.42 0.06 95 1014.0
20260906054559 58 0 0.0 0.0 0.06 0.42 0.06 95 1014.0
20260906054051 58 0 0.0 0.0 0.05 0.41 0.05 96 1013.8
20260906053550 58 0 0.0 0.0 0.02 0.38 0.02 96 1013.9
20260906053056 58 0 0.0 0.0 0.00 0.36 0.00 96 1013.8
20260906052553 59 0 0.0 0.0 0.00 0.36 0.00 96 1013.7
20260906052051 59 0 0.0 0.0 0.00 0.36 0.00 96 1013.8
20260906051608 59 0 0.0 0.0 0.00 0.36 0.00 96 1013.8
20260906051051 59 0 0.0 0.0 0.00 0.36 0.00 96 1013.7
20260906050550 59 0 0.0 0.0 0.00 0.36 0.00 96 1013.7
20260906050100 59 0 0.0 0.0 0.00 0.36 0.00 96 1014.0
20260906045600 59 0 0.0 0.0 0.00 0.36 0.00 96 1013.8
20260906045052 59 0 0.0 0.0 0.00 0.36 0.00 96 1014.0
20260906044556 59 0 0.0 0.0 0.00 0.36 0.00 96 1013.9
20260906044048 59 0 0.0 0.0 0.00 0.36 0.00 96 1013.9
20260906043549 59 0 0.0 0.0 0.00 0.36 0.00 96 1014.0
20260906043056 59 0 0.0 0.0 0.00 0.36 0.00 96 1014.0
20260906042550 59 0 0.0 0.0 0.00 0.36 0.00 96 1014.0
20260906042051 59 0 0.0 0.0 0.00 0.36 0.00 96 1013.9
20260906041614 59 0 0.0 0.0 0.00 0.36 0.00 96 1013.9
20260906041052 59 0 0.0 0.0 0.00 0.36 0.00 96 1014.0
20260906040548 59 0 0.0 0.0 0.00 0.36 0.00 96 1014.0
20260906040118 59 0 0.0 0.0 0.00 0.36 0.00 96 1014.0
20260906035550 59 0 0.0 0.0 0.00 0.36 0.36 96 1014.0
20260906035051 59 0 0.0 0.0 0.00 0.36 0.36 96 1013.9
20260906034557 59 0 0.0 0.0 0.00 0.36 0.36 96 1013.8
20260906034049 59 0 0.0 0.0 0.00 0.36 0.36 96 1013.6
20260906033553 59 0 0.0 0.0 0.00 0.36 0.36 96 1013.4
20260906033107 59 0 0.0 0.0 0.00 0.36 0.36 96 1013.5
20260906032551 59 0 0.0 0.0 0.00 0.36 0.36 96 1013.6
20260906032053 59 0 0.0 0.0 0.00 0.36 0.36 96 1013.6
20260906031601 59 0 0.0 0.0 0.00 0.36 0.36 96 1013.5
20260906031049 59 0 0.0 0.0 0.00 0.36 0.36 96 1013.5
20260906030550 59 0 0.0 0.0 0.00 0.36 0.36 96 1013.7
20260906030108 59 0 0.0 0.0 0.00 0.36 0.36 96 1013.5
20260906025548 59 0 0.0 0.0 0.00 0.36 0.36 96 1013.7
20260906025052 59 0 0.0 0.0 0.00 0.36 0.36 96 1013.5
20260906024625 59 0 0.0 0.0 0.00 0.36 0.36 96 1013.5
20260906024048 59 0 0.0 0.0 0.00 0.36 0.36 96 1013.6
20260906023551 59 0 0.0 0.0 0.00 0.36 0.36 96 1013.6
20260906023104 59 0 0.0 0.0 0.00 0.36 0.36 96 1013.7
20260906022553 59 0 0.0 0.0 0.00 0.36 0.36 96 1013.7
20260906022051 59 0 0.0 0.0 0.00 0.36 0.36 95 1013.5
20260906021609 59 0 0.0 0.0 0.00 0.36 0.36 95 1013.5
20260906021047 59 0 0.0 0.0 0.00 0.36 0.36 95 1013.5
20260906020548 59 0 0.0 0.0 0.00 0.36 0.36 95 1013.4
20260906015548 59 0 0.0 0.0 0.00 0.36 0.36 95 1013.7
20260906015051 59 0 0.0 0.0 0.00 0.36 0.36 95 1013.4
20260906014609 59 0 0.0 0.0 0.00 0.36 0.36 95 1013.6
20260906014051 59 0 0.0 0.0 0.00 0.36 0.36 95 1013.5
20260906013552 59 0 0.0 0.0 0.00 0.36 0.36 95 1013.6
20260906013103 59 0 0.0 0.0 0.00 0.36 0.36 95 1013.5
20260906012552 59 0 0.0 0.0 0.00 0.36 0.36 95 1013.6
20260906012052 59 0 0.0 0.0 0.00 0.36 0.36 95 1013.5
20260906011603 59 0 0.0 0.0 0.00 0.36 0.36 95 1013.6
20260906011050 59 0 0.0 0.0 0.00 0.36 0.36 95 1013.4
20260906010552 59 0 0.0 0.0 0.00 0.36 0.36 95 1013.3
20260906010120 59 0 0.0 0.0 0.00 0.36 0.36 95 1013.5
20260906005551 59 0 0.0 0.0 0.00 0.36 0.36 95 1013.7
20260906005052 59 0 0.0 0.0 0.00 0.36 0.36 95 1013.4
20260906004607 59 0 0.0 0.0 0.00 0.36 0.36 95 1013.5
20260906004051 59 0 0.0 0.0 0.00 0.36 0.36 95 1013.7
20260906003551 59 0 0.0 0.0 0.00 0.36 0.36 95 1013.7
20260906003118 59 0 0.0 0.0 0.00 0.36 0.36 95 1013.6
20260906002551 59 0 0.0 0.0 0.00 0.36 0.36 95 1013.5
20260906002054 59 0 0.0 0.0 0.00 0.36 0.36 95 1013.5
20260906001558 59 0 0.0 0.0 0.00 0.36 0.36 95 1013.3
20260906001052 59 0 0.0 0.0 0.00 0.36 0.36 95 1013.3
20260906000552 59 0 0.0 0.0 0.00 0.36 0.36 95 1013.4
20260906000105 59 0 0.0 0.0 0.00 0.36 0.36 94 1013.3
20260905235655 59 0 0.0 0.0 0.00 0.36 0.36 94 1013.3
20260905235052 59 0 0.0 0.0 0.00 0.36 0.36 94 1013.1
20260905234609 59 0 0.0 0.0 0.00 0.36 0.36 94 1013.0
20260905234051 59 0 0.0 0.0 0.00 0.36 0.36 94 1012.9
20260905233551 59 0 0.0 0.0 0.00 0.36 0.36 94 1012.8
20260905233132 60 0 0.0 0.0 0.00 0.36 0.36 94 1012.8
20260905233104 60 0 0.0 0.0 0.01 0.36 0.36 94 1012.9
20260905231051 60 0 0.0 0.0 0.03 0.36 0.36 94 1012.9
20260905230552 60 0 0.0 0.0 0.04 0.36 0.36 94 1012.9
20260905230109 60 0 0.0 0.0 0.04 0.36 0.36 94 1012.7
20260905225600 60 0 0.0 0.0 0.04 0.36 0.36 93 1012.7
20260905225051 60 0 0.0 0.0 0.06 0.36 0.36 93 1012.7
20260905224602 60 0 0.0 0.0 0.07 0.36 0.36 93 1012.8
20260905224052 60 0 0.0 0.0 0.08 0.36 0.36 93 1012.8
20260905223551 60 0 0.0 0.0 0.12 0.36 0.36 93 1012.7
20260905223100 60 0 0.0 0.0 0.15 0.36 0.36 93 1012.7
20260905222553 60 0 0.0 0.0 0.15 0.35 0.35 93 1012.7
20260905222051 60 0 0.0 0.0 0.17 0.35 0.35 93 1012.8
20260905221555 60 0 0.0 0.0 0.18 0.34 0.34 93 1012.7
20260905221048 60 0 0.0 0.0 0.19 0.33 0.33 92 1012.8
20260905220547 60 0 0.0 0.0 0.20 0.32 0.32 92 1012.6
20260905220109 60 0 0.0 0.0 0.24 0.32 0.32 92 1012.5
20260905215551 60 0 0.0 0.0 0.25 0.32 0.32 92 1012.5
20260905215050 60 0 0.0 0.0 0.23 0.30 0.30 92 1012.3
20260905214602 60 0 0.0 0.0 0.22 0.29 0.29 91 1012.1
20260905214051 60 0 0.0 0.0 0.21 0.28 0.28 91 1012.1
20260905213555 60 0 0.0 0.0 0.18 0.24 0.24 91 1012.1
20260905213110 60 0 0.0 0.0 0.15 0.21 0.21 91 1012.2
20260905212552 61 0 0.0 1.0 0.16 0.20 0.20 91 1012.1
20260905212052 61 0 0.0 1.0 0.14 0.18 0.18 90 1011.9
20260905211619 61 0 0.0 4.0 0.15 0.16 0.16 90 1011.8
20260905211052 61 0 0.0 8.0 0.13 0.14 0.14 89 1011.8
20260905210554 62 108 0.0 12.0 0.11 0.12 0.12 88 1011.6
20260905210121 62 0 0.0 12.0 0.07 0.08 0.08 87 1011.6
20260905205551 63 0 0.0 9.0 0.06 0.07 0.07 87 1011.4
20260905205055 63 0 1.0 9.0 0.06 0.07 0.07 87 1011.4
20260905204618 64 0 0.0 9.0 0.06 0.07 0.07 87 1011.3
20260905204051 64 86 0.0 9.0 0.06 0.07 0.07 86 1011.3
20260905203551 65 85 1.0 9.0 0.05 0.06 0.06 85 1011.3
20260905203111 66 0 0.0 9.0 0.05 0.06 0.06 84 1011.1
20260905202550 67 83 1.0 9.0 0.03 0.04 0.04 81 1011.3
20260905202051 68 0 0.0 7.0 0.03 0.04 0.04 79 1011.3
20260905201606 69 0 1.0 9.0 0.00 0.01 0.01 77 1011.1
20260905201051 70 0 0.0 9.0 0.00 0.01 0.01 74 1011.1
20260905200551 70 0 0.0 4.0 0.01 0.01 0.01 72 1011.2
20260905200107 70 0 0.0 4.0 0.01 0.01 0.01 71 1011.1
20260905195552 70 0 0.0 0.0 0.01 0.01 0.01 74 1011.1
20260905195051 69 0 0.0 0.0 0.01 0.01 0.01 74 1011.0
20260905194605 69 0 0.0 5.0 0.01 0.01 0.01 73 1011.0
20260905194050 70 0 0.0 5.0 0.01 0.01 0.01 74 1011.1
20260905193551 69 0 0.0 0.0 0.01 0.01 0.01 79 1011.0